[[{"header":{"parameterUnit":"m.s-1","parameterCategory":1,"la1":30.2991,"la2":30.254,"lo1":-89.0895,"lo2":-89.0444,"dy":0.0017,"dx":0.0017,"nx":28,"ny":28,"refTime":"2025-03-12T03:00:00:Z","depth":0,"parameterNumber":2,"parameterNumberName":"U-component_of_WINDS"},"data":[0,0,0,0,0,0,0,0,0,0,0,0,0,0,0,0,0,0,0,0,0,0,0,0,0,0,0,0,0,0,0,0,0,0,0,0,0,0,0,0,0,0,0,0,0,0,0,0,0,0,0,0,0,0,0,0,0,0,-0.831,-0.831,0,-0.8255,-0.8254,-0.8253,-0.8256,-0.8257,-0.8258,-0.8259,-0.82,-0.8198,-0.8196,0,0,0,0,0,0,0,0,0,0,0,0,0,-0.8419,-0.8417,-0.8311,-0.831,-0.8309,-0.8255,-0.8254,-0.8253,-0.8256,-0.8257,-0.8258,-0.8259,-0.8201,-0.8199,-0.8196,0,0,0,0,0,0,0,0,0,0,0,0,0,-0.8368,-0.8416,-0.8311,-0.8304,-0.8303,-0.8255,-0.8254,-0.8253,-0.8256,-0.8257,-0.8258,-0.8259,-0.8202,-0.8199,-0.8195,-0.815,0,0,-0.8185,-0.8183,0,0,0,0,0,0,0,0,-0.8371,-0.8364,-0.8306,-0.8304,-0.8303,-0.8264,-0.8271,-0.8218,-0.8256,-0.8274,-0.8259,-0.826,-0.822,-0.8216,-0.8202,-0.8147,-0.8145,-0.8185,-0.8182,-0.8181,-0.818,0,0,0,0,0,0,0,-0.8375,-0.8367,-0.8288,-0.8305,-0.8303,-0.8304,-0.8298,-0.8261,-0.8241,-0.8272,-0.8272,-0.8266,-0.822,-0.8206,-0.8201,-0.8144,-0.8185,-0.8182,-0.8179,-0.8178,-0.8048,-0.8047,0,0,0,0,0,0,-0.838,-0.837,-0.829,-0.8287,-0.8341,-0.8301,-0.8294,-0.8275,-0.8241,-0.8237,-0.8265,-0.8266,-0.8211,-0.8205,-0.8199,-0.8142,-0.8181,-0.8178,-0.8176,-0.8049,-0.8048,-0.8046,0,0,0,0,0,0,-0.8382,-0.8373,-0.8292,-0.8328,-0.8318,-0.8298,-0.8276,-0.8273,-0.8259,-0.8236,-0.8232,-0.8254,-0.8212,-0.8204,-0.8162,-0.814,-0.8176,-0.8173,-0.8051,-0.8049,-0.8047,-0.8029,0,0,0,0,0,0,-0.8385,-0.8374,-0.8356,-0.8328,-0.8316,-0.8256,-0.8275,-0.8271,-0.8253,-0.8254,-0.8225,-0.8221,-0.8212,-0.8167,-0.8159,-0.8136,-0.817,-0.8053,-0.805,-0.8047,-0.8032,-0.8027,-0.8023,0,0,0,0,0,-0.8389,-0.8354,-0.8355,-0.8346,-0.8294,-0.8255,-0.8248,-0.8239,-0.8252,-0.8233,-0.8219,-0.8222,-0.8145,-0.8163,-0.8153,-0.813,-0.8054,-0.8051,-0.8048,-0.8034,-0.8028,-0.8023,0,0,0,0,0,0,-0.838,-0.835,-0.8351,-0.8306,-0.8283,-0.8256,-0.8233,-0.8234,-0.8207,-0.8209,-0.8199,-0.8192,-0.815,-0.8136,-0.8157,-0.8084,-0.8101,-0.8096,-0.8094,-0.8088,-0.8083,-0.8087,-0.8168,0,0,0,0,0,-0.8372,-0.8343,-0.8319,-0.8281,-0.827,-0.8253,-0.8236,-0.8231,-0.8207,-0.8197,-0.8179,-0.8156,-0.8126,-0.8107,-0.8078,-0.8031,-0.8023,-0.801,-0.8005,-0.8002,-0.7997,-0.7969,-0.7962,-0.8036,-0.8036,-0.8036,0,0,-0.8357,-0.8337,-0.8319,-0.8278,-0.826,-0.823,-0.8245,-0.8213,-0.819,-0.8192,-0.8151,-0.8137,-0.811,-0.8065,-0.8044,-0.8052,-0.7975,-0.7998,-0.7995,-0.7992,-0.7965,-0.7958,-0.7952,-0.8034,-0.8034,-0.8034,0,0,-0.8312,-0.8295,-0.826,-0.8242,-0.8214,-0.8204,-0.8196,-0.8169,-0.8159,-0.8118,-0.8119,-0.8092,-0.8042,-0.8022,-0.8005,-0.7954,-0.7955,-0.7945,-0.7921,-0.7894,-0.7889,-0.7883,-0.7863,-0.7856,-0.7941,-0.7941,-0.7941,0,-0.8296,-0.825,-0.8243,-0.821,-0.8191,-0.8193,-0.8158,-0.814,-0.8105,-0.8092,-0.8102,-0.8038,-0.802,-0.797,-0.7957,-0.7944,-0.7934,-0.7947,-0.789,-0.7885,-0.788,-0.786,-0.7853,-0.794,-0.794,-0.794,-0.794,0,-0.8231,-0.8199,-0.8175,-0.814,-0.812,-0.8086,-0.8073,-0.8053,-0.805,-0.8038,-0.7996,-0.7975,-0.7942,-0.793,-0.7927,-0.7879,-0.7884,-0.7893,-0.7909,-0.7872,-0.7853,-0.7846,-0.7938,-0.7938,-0.7939,-0.7939,0,0,-0.8176,-0.8139,-0.813,-0.8113,-0.8084,-0.8059,-0.8025,-0.7993,-0.7975,-0.7951,-0.7922,-0.788,-0.7887,-0.7868,-0.7863,-0.784,-0.7799,-0.7851,-0.785,-0.784,-0.7742,-0.7734,-0.7726,-0.78,-0.7799,-0.7798,-0.7744,0,-0.8127,-0.8067,-0.8059,-0.8005,-0.7975,-0.7977,-0.7948,-0.7926,-0.7914,-0.7887,-0.7875,-0.7844,-0.7857,-0.7846,-0.7823,-0.7808,-0.7778,-0.7813,-0.7771,-0.777,-0.7775,-0.7717,-0.7708,-0.7658,-0.7737,-0.7735,-0.7735,0,-0.8061,-0.8034,-0.7978,-0.7951,-0.7938,-0.7912,-0.7881,-0.7856,-0.7831,-0.7824,-0.7804,-0.7802,-0.7767,-0.7787,-0.7737,-0.7761,-0.7744,-0.7734,-0.7732,-0.7726,-0.7748,-0.7706,-0.7642,-0.7633,-0.7723,-0.7724,-0.7725,0,-0.8024,-0.7975,-0.7934,-0.7921,-0.7889,-0.787,-0.7857,-0.7833,-0.7814,-0.7788,-0.7775,-0.7745,-0.7728,-0.7705,-0.7695,-0.7711,-0.7646,-0.7665,-0.7638,-0.7638,-0.7622,-0.7622,-0.7551,-0.7615,-0.7615,-0.7615,-0.7616,0,-0.7968,-0.7933,-0.7917,-0.7892,-0.7852,-0.7844,-0.7805,-0.7792,-0.7771,-0.7743,-0.7744,-0.7717,-0.7707,-0.7679,-0.7671,-0.763,-0.7623,-0.7616,-0.7614,-0.7614,-0.7615,-0.7601,-0.7603,-0.7613,-0.7614,-0.7614,-0.7615,0,-0.792,-0.7908,-0.7863,-0.7838,-0.783,-0.7802,-0.7779,-0.7755,-0.7744,-0.7709,-0.77,-0.7683,-0.765,-0.7638,-0.7598,-0.7593,-0.7545,-0.7547,-0.7553,-0.7552,-0.7524,-0.7526,-0.7439,-0.7426,-0.7501,-0.7501,-0.75,0,-0.7884,-0.7856,-0.7828,-0.7809,-0.7794,-0.7764,-0.7744,-0.7736,-0.7715,-0.7685,-0.7664,-0.7631,-0.7604,-0.7551,-0.7535,-0.7504,-0.7504,-0.7476,-0.7499,-0.75,-0.7501,-0.7501,-0.7498,-0.7471,-0.747,-0.7469,-0.7469,0,-0.782,-0.7816,-0.7787,-0.7757,-0.7733,-0.7709,-0.7685,-0.767,-0.7658,-0.7635,-0.7601,-0.758,-0.7539,-0.7506,-0.7475,-0.746,-0.7462,-0.7462,-0.7454,-0.7452,-0.7456,-0.7451,-0.7538,-0.7463,-0.7464,-0.7464,-0.7465,-0.7465,-0.7775,-0.775,-0.7726,-0.7694,-0.7675,-0.7653,-0.7628,-0.7615,-0.7586,-0.7552,-0.7549,-0.7512,-0.7488,-0.7446,-0.743,-0.7401,-0.7409,-0.7397,-0.7394,-0.739,-0.7387,-0.7463,-0.7396,-0.7396,-0.7396,-0.7396,-0.7396,0,-0.7709,-0.7694,-0.7665,-0.7631,-0.7606,-0.7611,-0.7585,-0.7564,-0.7531,-0.7509,-0.7482,-0.7443,-0.7411,-0.7393,-0.7361,-0.734,-0.734,-0.7332,-0.7332,-0.7328,-0.7383,-0.7392,-0.7333,-0.7333,-0.7333,-0.7333,-0.7333,-0.7333,-0.7672,-0.7629,-0.7622,-0.7571,-0.7556,-0.7519,-0.7503,-0.7483,-0.7465,-0.742,-0.7394,-0.7382,-0.7361,-0.7328,-0.7299,-0.7294,-0.7281,-0.7272,-0.7268,-0.7318,-0.7325,-0.7331,-0.7339,-0.727,-0.727,-0.7215,-0.7215,-0.7214]},{"header":{"parameterUnit":"m.s-1","parameterCategory":1,"la1":30.2991,"la2":30.254,"lo1":-89.0895,"lo2":-89.0444,"dy":0.0017,"dx":0.0017,"nx":28,"ny":28,"refTime":"2025-03-12T03:00:00:Z","depth":0,"parameterNumber":3,"parameterNumberName":"V-component_of_WINDS"},"data":[0,0,0,0,0,0,0,0,0,0,0,0,0,0,0,0,0,0,0,0,0,0,0,0,0,0,0,0,0,0,0,0,0,0,0,0,0,0,0,0,0,0,0,0,0,0,0,0,0,0,0,0,0,0,0,0,0,0,3.4565,3.4566,0,3.4661,3.4662,3.4664,3.4646,3.4644,3.4642,3.4641,3.4736,3.474,3.4745,0,0,0,0,0,0,0,0,0,0,0,0,0,3.436,3.4364,3.4565,3.4566,3.4567,3.4661,3.4663,3.4664,3.4646,3.4644,3.4642,3.464,3.4735,3.474,3.4745,0,0,0,0,0,0,0,0,0,0,0,0,0,3.4452,3.4365,3.4564,3.457,3.4571,3.4661,3.4663,3.4664,3.4647,3.4644,3.4641,3.4639,3.4733,3.474,3.4746,3.4835,0,0,3.4765,3.4767,0,0,0,0,0,0,0,0,3.4447,3.446,3.4568,3.4569,3.4571,3.4639,3.4626,3.4721,3.4647,3.4618,3.4641,3.4638,3.4706,3.4714,3.4738,3.484,3.4844,3.4765,3.4769,3.4772,3.4773,0,0,0,0,0,0,0,3.4441,3.4455,3.4603,3.4569,3.4571,3.4566,3.4576,3.4644,3.4675,3.462,3.4619,3.4631,3.4706,3.4732,3.474,3.4845,3.4765,3.4771,3.4774,3.4777,3.5025,3.5028,0,0,0,0,0,0,3.4433,3.445,3.46,3.4606,3.4502,3.4571,3.4583,3.462,3.4674,3.468,3.4633,3.463,3.4723,3.4733,3.4743,3.4852,3.4772,3.4777,3.4781,3.5022,3.5026,3.5029,0,0,0,0,0,0,3.4429,3.4447,3.4596,3.4528,3.4546,3.4578,3.4619,3.4623,3.4649,3.4684,3.4689,3.4654,3.4721,3.4735,3.4813,3.4855,3.478,3.4786,3.5019,3.5023,3.5027,3.5071,0,0,0,0,0,0,3.4423,3.4445,3.4481,3.4529,3.455,3.4665,3.4622,3.4627,3.466,3.4657,3.4705,3.471,3.472,3.4804,3.4819,3.4862,3.4791,3.5015,3.5021,3.5026,3.5066,3.5076,3.5085,0,0,0,0,0,3.4416,3.4489,3.4483,3.4501,3.4595,3.4668,3.468,3.469,3.4663,3.4699,3.4721,3.4709,3.4848,3.4812,3.4829,3.4875,3.5012,3.5019,3.5025,3.5061,3.5074,3.5084,0,0,0,0,0,0,3.4444,3.4495,3.4489,3.458,3.462,3.4665,3.471,3.4703,3.4751,3.4746,3.4755,3.4766,3.4846,3.4868,3.4827,3.4964,3.4926,3.4936,3.4948,3.496,3.4969,3.4963,3.4796,0,0,0,0,0,3.4461,3.4517,3.4557,3.4633,3.4654,3.4678,3.471,3.4715,3.4756,3.4773,3.4801,3.484,3.4893,3.4927,3.4977,3.5068,3.5078,3.5108,3.5117,3.5125,3.5134,3.5183,3.5197,3.505,3.505,3.505,0,0,3.4496,3.4531,3.4565,3.464,3.4672,3.4728,3.4693,3.4754,3.4796,3.4781,3.4858,3.4879,3.4924,3.5009,3.5047,3.5029,3.5177,3.5133,3.5139,3.5144,3.5191,3.5205,3.5218,3.5054,3.5053,3.5053,0,0,3.459,3.4622,3.4689,3.4721,3.4769,3.4785,3.4801,3.4846,3.4861,3.4937,3.4928,3.4976,3.5067,3.5099,3.5127,3.5231,3.5221,3.5247,3.5297,3.5345,3.5357,3.5367,3.5405,3.5418,3.5255,3.5255,3.5255,0,3.4628,3.4714,3.4723,3.4786,3.4819,3.4809,3.4876,3.4906,3.4968,3.499,3.4969,3.5082,3.5111,3.5203,3.5229,3.5251,3.5269,3.5242,3.5354,3.5365,3.5375,3.5411,3.5425,3.5258,3.5258,3.5258,3.5257,0,3.4758,3.4817,3.4865,3.4927,3.4964,3.5029,3.5047,3.5084,3.5084,3.5102,3.5179,3.5213,3.527,3.5292,3.5293,3.5384,3.5371,3.5352,3.5314,3.5392,3.5426,3.5439,3.5262,3.5261,3.526,3.526,0,0,3.4874,3.4939,3.4957,3.4984,3.5036,3.5082,3.5144,3.5201,3.5233,3.5274,3.5327,3.5403,3.5386,3.5417,3.5421,3.5463,3.5544,3.5439,3.544,3.5458,3.5646,3.5662,3.5678,3.5537,3.5539,3.5541,3.5643,0,3.4974,3.5087,3.5097,3.5198,3.5253,3.5244,3.5298,3.5335,3.5352,3.54,3.5418,3.5472,3.5444,3.5464,3.5504,3.5525,3.5582,3.5518,3.5586,3.5588,3.5577,3.5695,3.5712,3.5806,3.5656,3.5658,3.566,0,3.5106,3.5153,3.526,3.5304,3.5327,3.5377,3.5429,3.5475,3.5515,3.5525,3.556,3.5558,3.5621,3.5579,3.5666,3.5622,3.565,3.5664,3.5668,3.5676,3.563,3.5708,3.5837,3.5851,3.5681,3.5679,3.5678,0,3.5181,3.5271,3.5347,3.537,3.5423,3.5458,3.5481,3.5519,3.5552,3.5597,3.5618,3.5669,3.5698,3.5736,3.5747,3.5716,3.5834,3.5793,3.5843,3.5843,3.587,3.5869,3.6007,3.5886,3.5885,3.5885,3.5885,0,3.5292,3.5359,3.5382,3.5429,3.5502,3.5511,3.5583,3.5604,3.5638,3.5687,3.568,3.5727,3.5738,3.5786,3.5794,3.5865,3.5877,3.5886,3.5888,3.5888,3.5887,3.5908,3.5902,3.5889,3.5888,3.5887,3.5887,0,3.539,3.5409,3.5491,3.5533,3.5545,3.5598,3.5633,3.5678,3.5693,3.5756,3.5771,3.5795,3.5851,3.5865,3.5932,3.5937,3.6021,3.6016,3.6008,3.6008,3.6058,3.6054,3.6216,3.6238,3.61,3.6102,3.6103,0,3.5461,3.5512,3.556,3.5594,3.5619,3.5672,3.5706,3.5716,3.5752,3.5801,3.5839,3.5894,3.5939,3.6029,3.6051,3.6102,3.6098,3.6151,3.6106,3.6104,3.6101,3.6098,3.6103,3.6161,3.6162,3.6164,3.6164,0,3.5586,3.5592,3.5642,3.5695,3.5736,3.5777,3.5817,3.5844,3.5859,3.5899,3.5957,3.5992,3.606,3.6115,3.6165,3.6187,3.6179,3.6178,3.6193,3.6194,3.6188,3.6193,3.6033,3.6175,3.6174,3.6173,3.6173,3.6172,3.5673,3.5718,3.5759,3.5815,3.5846,3.5883,3.5927,3.5947,3.5996,3.6053,3.6055,3.6118,3.6155,3.6223,3.6247,3.6295,3.6279,3.63,3.6305,3.6311,3.6316,3.6179,3.6304,3.6304,3.6304,3.6303,3.6303,0,3.5798,3.5824,3.5875,3.5931,3.5975,3.5963,3.6006,3.6042,3.6098,3.6134,3.6179,3.6244,3.6297,3.6323,3.6375,3.6408,3.6405,3.6421,3.642,3.6425,3.6327,3.631,3.6423,3.6423,3.6423,3.6423,3.6423,3.6423,3.5869,3.5944,3.5955,3.6045,3.6069,3.6132,3.6158,3.6191,3.622,3.6294,3.6339,3.6355,3.6387,3.644,3.6488,3.6494,3.6513,3.6532,3.6536,3.6444,3.6432,3.6421,3.6405,3.6536,3.6536,3.6631,3.6632,3.6632]}]]